Location: Albany
(35.0170°S, 117.8920°E)
Time: 23:01:15
(UTC+08:00)

Vanguard 2 Rocket - All Passes

Search period start: 23 January 2021 00:00
Search period end: 02 February 2021 00:00
Orbit: 554 x 3325 km, 32.9° (Epoch: 22 January)

Date Brightness Start Highest point End Pass type
(mag) Time Alt. Az. Time Alt. Az. Time Alt. Az.
23 Jan - 02:23:11 10° NNW 02:29:32 34° NE 02:39:53 10° E visible
23 Jan - 04:34:03 10° WNW 04:43:17 74° NNE 04:59:49 10° E visible
23 Jan - 06:47:08 10° W 06:59:54 81° N 07:19:50 10° ENE daylight
23 Jan - 09:01:45 10° W 09:17:45 61° NNW 09:37:35 10° NE daylight
23 Jan - 11:19:25 10° W 11:34:49 31° NW 11:50:16 10° NNE daylight
24 Jan - 01:25:41 10° N 01:30:18 20° NE 01:36:46 10° E visible
24 Jan - 03:35:03 10° WNW 03:42:48 62° NNE 03:56:51 10° E visible
24 Jan - 05:47:26 10° W 05:58:19 83° N 06:16:52 10° E daylight
24 Jan - 08:01:15 10° W 08:15:42 69° NNW 08:35:53 10° ENE daylight
24 Jan - 10:17:13 10° W 10:33:09 40° NW 10:50:45 10° NNE daylight
24 Jan - 12:41:47 10° WNW 12:49:11 13° NW 12:56:25 10° NNW daylight
25 Jan - 02:36:24 10° NW 02:42:53 47° NNE 02:54:08 10° E visible
25 Jan - 04:48:01 10° WNW 04:57:12 80° N 05:13:47 10° E visible
25 Jan - 07:01:12 10° W 07:13:50 75° NNW 07:33:33 10° ENE daylight
25 Jan - 09:15:58 10° W 09:31:18 49° NNW 09:50:17 10° NE daylight
25 Jan - 11:35:26 10° W 11:47:56 21° NW 12:00:41 10° N daylight
26 Jan - 01:38:13 10° NNW 01:43:27 30° NE 01:51:36 10° E visible
26 Jan - 03:48:52 10° WNW 03:56:36 73° NNE 04:10:50 10° E visible
26 Jan - 06:01:29 10° W 06:12:18 80° N 06:30:45 10° ENE daylight
26 Jan - 08:15:22 10° W 08:29:25 58° NNW 08:48:58 10° NE daylight
26 Jan - 10:32:15 10° W 10:46:27 30° NW 11:02:10 10° NNE daylight
27 Jan - 00:40:54 10° N 00:44:22 17° NE 00:48:53 10° E visible
27 Jan - 02:50:01 10° WNW 02:56:29 60° NNE 03:08:11 10° E visible
27 Jan - 05:02:02 10° W 05:11:12 82° N 05:27:44 10° E daylight
27 Jan - 07:15:15 10° W 07:27:41 66° NNW 07:46:59 10° ENE daylight
27 Jan - 09:30:30 10° W 09:44:47 38° NNW 10:02:21 10° NNE daylight
27 Jan - 11:54:33 10° WNW 12:01:13 13° NW 12:08:01 10° NNW daylight
28 Jan - 01:51:27 10° NW 01:56:52 43° NNE 02:05:55 10° E visible
28 Jan - 04:02:50 10° W 04:10:32 79° N 04:24:48 10° E visible
28 Jan - 06:15:32 10° W 06:26:15 73° NNW 06:44:27 10° ENE daylight
28 Jan - 08:29:39 10° W 08:43:05 47° NNW 09:01:32 10° NE daylight
28 Jan - 10:48:28 10° W 10:59:49 20° NW 11:12:14 10° N daylight
29 Jan - 00:53:20 10° NNW 00:57:37 27° NE 01:03:54 10° E visible
29 Jan - 03:03:51 10° WNW 03:10:20 72° NNE 03:22:10 10° E visible
29 Jan - 05:16:05 10° W 05:25:12 78° N 05:41:37 10° ENE daylight
29 Jan - 07:29:24 10° W 07:41:29 55° NNW 07:59:58 10° NE daylight
29 Jan - 09:45:40 10° W 09:58:18 27° NW 10:13:30 10° NNE daylight
29 Jan - 23:56:12 10° N 23:58:38 14° NE 00:01:30 10° ENE visible
30 Jan - 02:05:05 10° WNW 02:10:32 57° NNE 02:20:00 10° E visible
30 Jan - 04:16:52 10° W 04:24:33 80° N 04:38:46 10° E visible
30 Jan - 06:29:37 10° W 06:40:10 63° NNW 06:57:49 10° ENE daylight
30 Jan - 08:44:16 10° W 08:56:44 35° NNW 09:13:25 10° NNE daylight
30 Jan - 11:08:39 10° WNW 11:13:22 11° NW 11:18:18 10° NNW daylight
31 Jan - 01:06:33 10° NW 01:11:07 39° NNE 01:18:15 10° E visible
31 Jan - 03:17:50 10° W 03:24:18 78° N 03:36:09 10° E visible
31 Jan - 05:30:09 10° W 05:39:11 70° NNW 05:55:16 10° ENE daylight
31 Jan - 07:43:45 10° W 07:55:17 43° NNW 08:12:24 10° NE daylight
31 Jan - 10:02:12 10° WNW 10:11:55 18° NW 10:23:05 10° N daylight
01 Feb - 00:08:25 10° NNW 00:12:00 23° NE 00:16:45 10° E visible
01 Feb - 02:18:56 10° WNW 02:24:25 70° NNE 02:34:00 10° E visible
01 Feb - 04:30:56 10° W 04:38:34 75° N 04:52:37 10° ENE visible
01 Feb - 06:43:49 10° W 06:54:03 50° NNW 07:10:44 10° NE daylight
01 Feb - 08:59:39 10° W 09:10:27 25° NW 09:24:16 10° N daylight
01 Feb - 23:11:24 10° NNE 23:12:58 12° NE 23:14:42 10° ENE night (unlit)
